Location: Boneville
(33.4331°N, 82.4399°W)
Time: 23:05:10
(UTC+00:00)

Hubble Space Telescope - Pass Details

Date: 27 September 2024
Orbit: 504 x 508 km, 28.5° (Epoch: 06 October)

Event Time Altitude Azimuth Distance (km) Brightness Sun altitude
Exits shadow 10:55:31 - 240° (WSW) 2,119 3.3 -6.3°
Reaches altitude 10° 10:56:40 10° 234° (SW) 1,696 2.8 -6.1°
Maximum altitude 11:00:11 32° 170° (S) 870 2.0 -5.3°
Drops below altitude 10° 11:03:43 10° 106° (ESE) 1,699 4.9 -4.6°
Sets 11:06:05 0° 96° (E) 2,583 6.9 -4.1°
